Skip Page Navigation
NASA JPL Caltech
NASA Logo - Jet Propulsion Laboratory + View the NASA Portal
+ Near-Earth Object (NEO) Program
Search JPL
JPL Home Earth Solar System Stars & Galaxies Technology
JPL Solar System Dynamics
BODIES ORBITS EPHEMERIDES TOOLS PHYSICAL DATA DISCOVERY FAQ SITE MAP
JPL Small-Body Database Browser
Search: [ help ]  
3103 Eger (1982 BB)
Classification: Apollo [NEO]          SPK-ID: 2003103
Ephemeris | Orbit Diagram | Orbital Elements | Physical Parameters | Discovery Circumstances | Close-Approach Data ]

[ hide orbit diagram ]
Orbit Diagram
Note: Make sure you have Java enabled on your browser to see the applet. This applet is provided as a 3D orbit visualization tool. The applet was implemented using 2-body methods, and hence should not be used for determining accurate long-term trajectories (over several years or decades) or planetary encounter circumstances. For accurate long-term ephemerides, please instead use our Horizons system.
Orbit Viewer

Additional Notes: the orbits shown in the applet are color coded. The planets are white lines, and the asteroid/comet is a blue line. The bright white line indicates the portion of the orbit that is above the ecliptic plane, and the darker portion is below the ecliptic plane. Likewise for the asteroid/comet orbit, the light blue indicates the portion above the ecliptic plane, and the dark blue the portion below the ecliptic plane.

Orbit Viewer applet originally written and kindly provided by Osamu Ajiki (AstroArts), and further modified by Ron Baalke (JPL).


Orbital Elements at Epoch 2456400.5 (2013-Apr-18.0) TDB
Reference: JPL 270 (heliocentric ecliptic J2000)
 Element Value Uncertainty (1-sigma)   Units 
e .3542429406068184 1.9461e-08  
a 1.404499810593699 1.1045e-09 AU
q .9069656676072677 2.6816e-08 AU
i 20.9311988947683 5.04e-06 deg
node 129.8011745134332 5.8953e-06 deg
peri 254.017211312319 6.9857e-06 deg
M 336.4663258847282 4.5015e-06 deg
tp 2456440.243690192066
(2013-May-27.74369019)
7.6134e-06 JED
period 607.9683265376368
1.66
7.1716e-07
1.963e-09
d
yr
n .5921361101986846 6.9848e-10 deg/d
Q 1.902033953580131 1.4958e-09 AU
  Orbit Determination Parameters
   # obs. used (total)      1937  
   # delay obs. used      1  
   # Doppler obs. used      3  
   data-arc span      11107 days (30.41 yr)  
   first obs. used      1982-01-21  
   last obs. used      2012-06-19  
   planetary ephem.      DE405  
   SB-pert. ephem.      SB405-CPV-2  
   condition code      0  
   fit RMS      .47202  
   data source      ORB  
   producer      Otto Matic  
   solution date      2013-Apr-29 15:43:18  

Additional Information
 Earth MOID = .0795179 AU 
 T_jup = 4.612 
[ show covariance matrix ]

Ephemeris | Orbit Diagram | Orbital Elements | Physical Parameters | Discovery Circumstances | Close-Approach Data ]

Physical Parameter Table
Parameter Symbol Value Units Sigma Reference Notes
absolute magnitude H 15.38 mag n/a PDS3 (MPC 17267)  
diameter diameter 1.5 km n/a Hazards due to Comets and Asteroids (1994), Ed. T. Gehrels, pp.540-543  
rotation period rot_per 5.7059 h n/a Asteroid Lightcurve DataBase (Rev. 2013-May-01) Published Reference List:
[Wisniewski, W.Z. (1987) Icarus 70, 566-572.]
[Wisniewski, W.Z. (1991) Icarus 90, 117-122.]
[Velichko, F.P.; Krugly, Yu.N.; Chiornij, V.G. (1989) Astron. Tsirk. 1553, 37-38.]
[De Sanctis, M.C.; Barucci, M.A.; Angeli, C.A.; Fulchignoni, M.; et al. (1994) Planet. Space Sci. 42, 859-864.]
[Pravec, P.; Wolf, M.; Sarounova, L. (1998) Icarus 136, 124-153.]
[Kaasalainen, M.; Torppa, J.; Piironen, J. (2002) Icarus 159, 369-395.]
[Durech, J.; Vokrouhlicky, D.; Baransky, A.R.; Breiter, S.; et al. (2012) Astron. Astrophys. 547, A10.]
geometric albedo albedo 0.64   n/a Hazards due to Comets and Asteroids (1994), Ed. T. Gehrels, pp.540-543  
B-V BV .732 mag .020 EAR-A-5-DDR-UBV-MEAN-VALUES-V1.1 #obs=1; phase=44.97 deg.
U-B UB .235 mag .039 EAR-A-5-DDR-UBV-MEAN-VALUES-V1.1 #obs=1; phase=44.97 deg.
SMASSII spectral type spec_B Xe   n/a EAR-A-5-DDR-TAXONOMY-V4.0 based on a high-resolution spectrum by Xu et al. (1995) or Bus and Binzel (2002)

3103 Eger (1982 BB)          Discovered 1982-Jan-20 by Lovas, M. at Piszkesteto
Reference: DISCOVERY.DBLast Updated: 2003-08-29

[ show close-approach data ]
Ephemeris | Orbit Diagram | Orbital Elements | Physical Parameters | Discovery Circumstances | Close-Approach Data ]
ABOUT SSD CREDITS/AWARDS PRIVACY/COPYRIGHT GLOSSARY LINKS
FirstGov 2013-May-23 04:48 UT
(server date/time)  
NASA Home Page
Site Manager:   Donald K. Yeomans
Webmaster  Alan B. Chamberlin